[[{"header":{"parameterUnit":"m.s-1","parameterCategory":1,"la1":30.2991,"la2":30.254,"lo1":-89.0895,"lo2":-89.0444,"dy":0.0017,"dx":0.0017,"nx":28,"ny":28,"refTime":"2025-02-10T03:00:00:Z","depth":0,"parameterNumber":2,"parameterNumberName":"U-component_of_WINDS"},"data":[0,0,0,0,0,0,0,0,0,0,0,0,0,0,0,0,0,0,0,0,0,0,0,0,0,0,0,0,0,0,0,0,0,0,0,0,0,0,0,0,0,0,0,0,0,0,0,0,0,0,0,0,0,0,0,0,0,0,-1.625,-1.6251,0,-1.6352,-1.6353,-1.6354,-1.6407,-1.6407,-1.6407,-1.6407,-1.6511,-1.6514,-1.6517,0,0,0,0,0,0,0,0,0,0,0,0,0,-1.6098,-1.61,-1.6249,-1.6251,-1.6252,-1.6352,-1.6353,-1.6354,-1.6407,-1.6407,-1.6407,-1.6407,-1.651,-1.6514,-1.6517,0,0,0,0,0,0,0,0,0,0,0,0,0,-1.6178,-1.6101,-1.6249,-1.629,-1.6295,-1.6351,-1.6353,-1.6355,-1.6407,-1.6407,-1.6407,-1.6407,-1.6509,-1.6513,-1.6517,-1.6541,0,0,-1.653,-1.6532,0,0,0,0,0,0,0,0,-1.6174,-1.6184,-1.6283,-1.6288,-1.6293,-1.6367,-1.6338,-1.6417,-1.6407,-1.6364,-1.6407,-1.6407,-1.6463,-1.6471,-1.649,-1.6546,-1.655,-1.653,-1.6533,-1.6534,-1.6536,0,0,0,0,0,0,0,-1.6168,-1.618,-1.629,-1.6284,-1.629,-1.6303,-1.6315,-1.6353,-1.6412,-1.6368,-1.6372,-1.6384,-1.6466,-1.6486,-1.6493,-1.6552,-1.653,-1.6534,-1.6536,-1.6538,-1.663,-1.663,0,0,0,0,0,0,-1.6156,-1.6175,-1.6287,-1.6293,-1.6232,-1.6306,-1.6319,-1.6343,-1.6412,-1.6422,-1.6383,-1.6386,-1.6479,-1.6488,-1.6497,-1.6528,-1.6534,-1.6538,-1.6541,-1.663,-1.663,-1.663,0,0,0,0,0,0,-1.6153,-1.6165,-1.6283,-1.6235,-1.6251,-1.6308,-1.6335,-1.6345,-1.6365,-1.6423,-1.6434,-1.6393,-1.6479,-1.6491,-1.6529,-1.6532,-1.654,-1.6544,-1.663,-1.663,-1.663,-1.6591,0,0,0,0,0,0,-1.6148,-1.6164,-1.6174,-1.6235,-1.6253,-1.6314,-1.6335,-1.6347,-1.6372,-1.6376,-1.6435,-1.6445,-1.648,-1.6523,-1.6533,-1.6538,-1.6547,-1.663,-1.663,-1.663,-1.6592,-1.659,-1.6587,0,0,0,0,0,-1.6142,-1.6159,-1.6174,-1.6187,-1.6267,-1.6314,-1.6324,-1.6365,-1.6372,-1.6382,-1.6419,-1.6443,-1.653,-1.6526,-1.6538,-1.6545,-1.663,-1.663,-1.663,-1.6593,-1.659,-1.6587,0,0,0,0,0,0,-1.6097,-1.6168,-1.6185,-1.6222,-1.6261,-1.6323,-1.6337,-1.636,-1.6398,-1.64,-1.6448,-1.6461,-1.6495,-1.6524,-1.6518,-1.657,-1.6583,-1.6585,-1.655,-1.6548,-1.6545,-1.6538,-1.655,0,0,0,0,0,-1.6091,-1.6124,-1.6184,-1.621,-1.6229,-1.6279,-1.6301,-1.6329,-1.6371,-1.6388,-1.6428,-1.6469,-1.6505,-1.6528,-1.6565,-1.6596,-1.661,-1.6606,-1.6604,-1.6602,-1.6603,-1.6622,-1.6621,-1.663,-1.663,-1.663,0,0,-1.608,-1.6122,-1.614,-1.6202,-1.6236,-1.6268,-1.6293,-1.6326,-1.635,-1.6393,-1.6432,-1.6462,-1.651,-1.6545,-1.6562,-1.657,-1.6604,-1.6602,-1.66,-1.6603,-1.6621,-1.6621,-1.662,-1.663,-1.663,-1.663,0,0,-1.6075,-1.6111,-1.6137,-1.617,-1.622,-1.6253,-1.6259,-1.6317,-1.6339,-1.6378,-1.6411,-1.644,-1.6501,-1.6534,-1.6559,-1.6565,-1.6588,-1.6575,-1.6563,-1.658,-1.6579,-1.6579,-1.658,-1.658,-1.6576,-1.6576,-1.6576,0,-1.6055,-1.6105,-1.6147,-1.6178,-1.6204,-1.6244,-1.627,-1.63,-1.6359,-1.6376,-1.6384,-1.6462,-1.6497,-1.6539,-1.6541,-1.6559,-1.6567,-1.6569,-1.6576,-1.6576,-1.6576,-1.6578,-1.6579,-1.6574,-1.6575,-1.6575,-1.6575,0,-1.6077,-1.6111,-1.6125,-1.6182,-1.6209,-1.6237,-1.6283,-1.6306,-1.633,-1.6362,-1.6401,-1.6444,-1.649,-1.6502,-1.6527,-1.6548,-1.6551,-1.6567,-1.658,-1.6572,-1.6575,-1.6576,-1.6572,-1.6572,-1.6573,-1.6573,0,0,-1.6048,-1.6126,-1.6131,-1.6156,-1.6214,-1.6241,-1.627,-1.6315,-1.6333,-1.6373,-1.6399,-1.6449,-1.6463,-1.6491,-1.652,-1.6534,-1.6536,-1.6548,-1.655,-1.6544,-1.6561,-1.6549,-1.655,-1.6551,-1.6552,-1.6552,-1.6557,0,-1.6052,-1.6107,-1.6145,-1.6185,-1.6216,-1.6254,-1.6279,-1.6317,-1.6347,-1.6378,-1.6411,-1.6446,-1.6463,-1.648,-1.6496,-1.6532,-1.654,-1.6532,-1.6575,-1.6576,-1.6562,-1.6551,-1.6539,-1.6542,-1.6558,-1.6559,-1.6559,0,-1.6064,-1.6102,-1.6145,-1.6198,-1.6212,-1.6235,-1.6278,-1.6307,-1.635,-1.6371,-1.6401,-1.643,-1.6462,-1.6472,-1.6516,-1.651,-1.653,-1.655,-1.6551,-1.6557,-1.6567,-1.6556,-1.6544,-1.6544,-1.6561,-1.6561,-1.6561,0,-1.6038,-1.61,-1.6133,-1.6154,-1.6217,-1.6232,-1.6259,-1.6302,-1.6326,-1.6363,-1.6379,-1.642,-1.6442,-1.6473,-1.6512,-1.6515,-1.6552,-1.6565,-1.657,-1.6569,-1.6576,-1.6575,-1.6567,-1.6589,-1.6589,-1.6589,-1.6589,0,-1.6039,-1.6064,-1.6122,-1.6143,-1.6171,-1.6214,-1.6241,-1.6271,-1.6309,-1.6335,-1.637,-1.6394,-1.6444,-1.6474,-1.6504,-1.6536,-1.6546,-1.6564,-1.6571,-1.6561,-1.6558,-1.6574,-1.6575,-1.6589,-1.6589,-1.6589,-1.6589,0,-1.6015,-1.6056,-1.6095,-1.6151,-1.6165,-1.6183,-1.6231,-1.6252,-1.6284,-1.6317,-1.6327,-1.6376,-1.6414,-1.6455,-1.6506,-1.6526,-1.6556,-1.6567,-1.6541,-1.6546,-1.6548,-1.6547,-1.6549,-1.6551,-1.6571,-1.6571,-1.6571,0,-1.6013,-1.6033,-1.609,-1.6111,-1.6136,-1.6169,-1.6193,-1.6235,-1.6259,-1.6309,-1.6323,-1.6363,-1.6397,-1.6454,-1.6495,-1.6533,-1.6546,-1.6544,-1.6552,-1.654,-1.6546,-1.6544,-1.6546,-1.6542,-1.6541,-1.6541,-1.6541,0,-1.6005,-1.6023,-1.6057,-1.6097,-1.6125,-1.6159,-1.6194,-1.6208,-1.6257,-1.6282,-1.632,-1.6346,-1.6398,-1.6436,-1.648,-1.6508,-1.6532,-1.6537,-1.6541,-1.653,-1.6514,-1.6522,-1.6535,-1.6537,-1.6538,-1.6538,-1.6538,-1.6538,-1.5992,-1.6011,-1.6054,-1.609,-1.612,-1.6152,-1.6174,-1.6208,-1.624,-1.6285,-1.6308,-1.6345,-1.6387,-1.6448,-1.6474,-1.6504,-1.6512,-1.6517,-1.6518,-1.6518,-1.6515,-1.6509,-1.6512,-1.6512,-1.6513,-1.6513,-1.6513,0,-1.5985,-1.6014,-1.6047,-1.6094,-1.6122,-1.6142,-1.6182,-1.6204,-1.6236,-1.6273,-1.6305,-1.6348,-1.6385,-1.6428,-1.6468,-1.6483,-1.6495,-1.6492,-1.6491,-1.6497,-1.6506,-1.6499,-1.6481,-1.6481,-1.6481,-1.6481,-1.6481,-1.6481,-1.5985,-1.6018,-1.6041,-1.6088,-1.6118,-1.6154,-1.6175,-1.6204,-1.6233,-1.628,-1.631,-1.6338,-1.6377,-1.6419,-1.6454,-1.6466,-1.6478,-1.6472,-1.6487,-1.6494,-1.6497,-1.6499,-1.6493,-1.6474,-1.6474,-1.6476,-1.6476,-1.6476]},{"header":{"parameterUnit":"m.s-1","parameterCategory":1,"la1":30.2991,"la2":30.254,"lo1":-89.0895,"lo2":-89.0444,"dy":0.0017,"dx":0.0017,"nx":28,"ny":28,"refTime":"2025-02-10T03:00:00:Z","depth":0,"parameterNumber":3,"parameterNumberName":"V-component_of_WINDS"},"data":[0,0,0,0,0,0,0,0,0,0,0,0,0,0,0,0,0,0,0,0,0,0,0,0,0,0,0,0,0,0,0,0,0,0,0,0,0,0,0,0,0,0,0,0,0,0,0,0,0,0,0,0,0,0,0,0,0,0,3.8705,3.8707,0,3.8864,3.8866,3.8867,3.8924,3.8924,3.8923,3.8923,3.9083,3.9088,3.9093,0,0,0,0,0,0,0,0,0,0,0,0,0,3.8453,3.8457,3.8705,3.8707,3.8709,3.8864,3.8866,3.8868,3.8924,3.8924,3.8923,3.8922,3.9082,3.9087,3.9093,0,0,0,0,0,0,0,0,0,0,0,0,0,3.8582,3.8458,3.8705,3.8756,3.8762,3.8863,3.8866,3.8868,3.8925,3.8924,3.8923,3.8922,3.908,3.9087,3.9094,3.9155,0,0,3.9116,3.9119,0,0,0,0,0,0,0,0,3.8574,3.8591,3.8746,3.8753,3.876,3.8873,3.8836,3.8964,3.8925,3.8863,3.8923,3.8922,3.9014,3.9027,3.9058,3.9163,3.9169,3.9116,3.9121,3.9124,3.9126,0,0,0,0,0,0,0,3.8565,3.8585,3.8768,3.8749,3.8757,3.8772,3.8789,3.886,3.8941,3.8868,3.8873,3.8891,3.9017,3.9051,3.9062,3.9172,3.9116,3.9123,3.9127,3.913,3.9339,3.934,0,0,0,0,0,0,3.8548,3.8577,3.8763,3.8773,3.8663,3.8777,3.8796,3.8838,3.894,3.8955,3.8891,3.8893,3.9039,3.9054,3.9068,3.9149,3.9124,3.9131,3.9135,3.9338,3.9339,3.934,0,0,0,0,0,0,3.8542,3.8564,3.8756,3.8676,3.8702,3.8782,3.8828,3.8841,3.8875,3.8958,3.8973,3.8911,3.9039,3.9058,3.9134,3.9156,3.9134,3.914,3.9336,3.9338,3.934,3.931,0,0,0,0,0,0,3.8535,3.8562,3.8585,3.8676,3.8706,3.8819,3.8829,3.8845,3.8887,3.8891,3.898,3.8994,3.904,3.9123,3.9141,3.9165,3.9146,3.9334,3.9337,3.9339,3.931,3.9311,3.9312,0,0,0,0,0,3.8526,3.8569,3.8586,3.8608,3.8737,3.882,3.8837,3.889,3.8889,3.8914,3.8968,3.8991,3.915,3.913,3.9151,3.9178,3.9333,3.9336,3.9339,3.9309,3.9311,3.9312,0,0,0,0,0,0,3.8477,3.8582,3.8602,3.8676,3.8739,3.883,3.8863,3.8889,3.8953,3.8953,3.9015,3.9035,3.9107,3.915,3.9126,3.9244,3.9243,3.925,3.9214,3.9216,3.9217,3.9205,3.9152,0,0,0,0,0,3.8475,3.8534,3.8623,3.868,3.8711,3.8781,3.8819,3.8855,3.8922,3.8949,3.9008,3.9073,3.9138,3.9179,3.9243,3.9316,3.9338,3.9345,3.9346,3.9347,3.9352,3.9398,3.9403,3.9349,3.9349,3.9349,0,0,3.8472,3.8536,3.8569,3.8672,3.8725,3.8786,3.8803,3.8865,3.8912,3.8958,3.9035,3.9081,3.9157,3.9233,3.9269,3.9271,3.9372,3.935,3.935,3.9356,3.9401,3.9406,3.941,3.9351,3.9351,3.9351,0,0,3.8497,3.855,3.8606,3.8659,3.874,3.8787,3.8801,3.8888,3.8921,3.8999,3.9037,3.9092,3.9202,3.9256,3.9297,3.9347,3.9372,3.9366,3.9372,3.9416,3.942,3.9424,3.9444,3.945,3.9371,3.9371,3.9371,0,3.8482,3.8575,3.863,3.8693,3.8738,3.8784,3.8842,3.8891,3.8988,3.9018,3.9019,3.9161,3.9215,3.9306,3.9318,3.935,3.9368,3.9356,3.9415,3.9419,3.9424,3.9444,3.9451,3.937,3.937,3.937,3.937,0,3.8554,3.8618,3.8653,3.8748,3.8797,3.8856,3.8922,3.8965,3.8997,3.9044,3.9125,3.9192,3.9272,3.9296,3.9327,3.9393,3.9392,3.9402,3.9403,3.9427,3.9447,3.9455,3.9368,3.9369,3.9369,3.9369,0,0,3.8551,3.8678,3.869,3.8736,3.883,3.8881,3.8943,3.9023,3.906,3.9126,3.9181,3.9275,3.9287,3.9334,3.9372,3.941,3.9448,3.9417,3.942,3.9422,3.9528,3.9521,3.9528,3.9465,3.9467,3.9468,3.9523,0,3.859,3.8704,3.8758,3.8848,3.891,3.8957,3.9012,3.9076,3.9123,3.9182,3.9234,3.93,3.931,3.934,3.9379,3.9435,3.9471,3.9432,3.9519,3.9521,3.9499,3.9538,3.953,3.9577,3.9531,3.9532,3.9533,0,3.8649,3.8718,3.8815,3.8906,3.8933,3.8982,3.9061,3.9117,3.9192,3.9224,3.9278,3.9315,3.9384,3.938,3.9477,3.9449,3.9488,3.9521,3.9525,3.9536,3.9529,3.9552,3.9594,3.9602,3.9545,3.9544,3.9543,0,3.864,3.8756,3.8831,3.8867,3.8974,3.9008,3.9054,3.9128,3.9174,3.9243,3.9274,3.935,3.9391,3.945,3.9507,3.9498,3.96,3.9599,3.9629,3.9628,3.9649,3.9647,3.9699,3.9671,3.9671,3.9671,3.9671,0,3.8678,3.8737,3.8829,3.8874,3.8942,3.9004,3.9069,3.9119,3.9185,3.9242,3.9287,3.934,3.9411,3.9473,3.9518,3.9594,3.9612,3.964,3.9652,3.9637,3.9634,3.9664,3.9663,3.9673,3.9672,3.9672,3.9672,0,3.8679,3.8743,3.8828,3.8923,3.8948,3.8994,3.9076,3.9123,3.9173,3.9245,3.9266,3.9344,3.942,3.9484,3.9582,3.9613,3.9692,3.9704,3.9667,3.9673,3.9701,3.9698,3.9775,3.979,3.975,3.975,3.975,0,3.87,3.8746,3.8848,3.889,3.8936,3.9002,3.9051,3.9114,3.9162,3.9254,3.929,3.937,3.9437,3.9556,3.9622,3.9699,3.9715,3.9737,3.9726,3.9712,3.9718,3.9715,3.9721,3.9737,3.9738,3.9738,3.9738,0,3.8731,3.8761,3.8828,3.8908,3.8965,3.903,3.9097,3.9129,3.9205,3.9257,3.9337,3.9389,3.9492,3.9571,3.9655,3.9703,3.9734,3.9741,3.9752,3.9738,3.9716,3.9731,3.9671,3.9739,3.9739,3.9738,3.9738,3.9738,3.8744,3.8789,3.8868,3.8943,3.9,3.9063,3.9113,3.917,3.9238,3.9327,3.9361,3.9443,3.952,3.9637,3.9686,3.9752,3.9755,3.9771,3.9775,3.9779,3.9778,3.9705,3.9767,3.9767,3.9767,3.9767,3.9767,0,3.8779,3.8833,3.8901,3.8995,3.9054,3.9079,3.9155,3.9204,3.9275,3.9345,3.9411,3.9504,3.9582,3.9656,3.9738,3.9776,3.9793,3.9796,3.9794,3.9806,3.9769,3.9752,3.9781,3.9781,3.9781,3.9781,3.9781,3.9781,3.8804,3.8883,3.8923,3.9031,3.9085,3.9167,3.9208,3.9267,3.9324,3.9425,3.9491,3.9539,3.9612,3.97,3.9773,3.9793,3.9822,3.9822,3.9845,3.981,3.9807,3.9805,3.979,3.9827,3.9827,3.9877,3.9877,3.9878]}]]